Regional Weather Roundup
Issued by NWS

Home | Current Version | Previous Version | Graphics & Text | Print | Product List | Glossary On
Versions: 1 2 3 4 5 6 7 8 9 10 11 12 13 14 15 16 17 18 19 20 21 22 23 24 25 26 27 28 29 30 31 32 33 34 35 36 37 38 39 40 41 42 43 44 45 46 47 48 49 50
000
ASUS43 KOAX 222302
RWRNE

WEATHER ROUNDUP FOR NEBRASKA
NATIONAL WEATHER SERVICE OMAHA NE
600 PM CDT WED OCT 22 2014

NOTES: SATELLITE DATA IS BEING USED TO AUGMENT CLOUD COVER ABOVE
       12000 FEET.
       "FAIR" INDICATES FEW OR NO CLOUDS BELOW 12,000 FEET WITH NO
       SIGNIFICANT WEATHER AND/OR OBSTRUCTIONS TO VISIBILITY.

  * THESE STATIONS DO NOT REPORT WEATHER SUCH AS RAIN...SNOW OR FOG.

NEZ001>004-019>022-054>056-230000-
NEBRASKA PANHANDLE

CITY           SKY/WX    TMP DP  RH WIND       PRES   REMARKS
SCOTTSBLUFF    SUNNY     66  22  18 NW14G23   30.02S
ALLIANCE       PTCLDY    63  33  32 N7        30.02F
CHADRON        CLEAR     63  29  27 NW9       30.01F
KIMBALL        CLOUDY    62  32  31 E3        30.06S
SIDNEY         PTCLDY    62  34  35 N7        30.07R
$$

NEZ057>060-069>072-079>082-230000-
SOUTHWEST NEBRASKA

CITY           SKY/WX    TMP DP  RH WIND       PRES   REMARKS
NORTH PLATTE   CLEAR     68  51  54 SE5       30.00R
IMPERIAL       CLEAR     70  40  33 N9        30.02S
LEXINGTON      CLEAR     67  55  65 CALM      30.00S
MCCOOK         CLEAR     69  51  52 NE7       30.00S
OGALLALA       CLEAR     69  30  23 NW7       30.03R
$$

NEZ005>010-023>029-035>040-094-230000-
NORTH CENTRAL NEBRASKA

CITY           SKY/WX    TMP DP  RH WIND       PRES   REMARKS
VALENTINE      CLEAR     64  40  41 NW5       30.00S
AINSWORTH      CLEAR     62  43  50 NW5       30.01S
BROKEN BOW     PTCLDY    64  55  72 N6        30.01S
O`NEILL        CLOUDY    58  55  88 CALM      30.01S
ORD            CLOUDY    62  57  83 NW5       30.00S
THEDFORD       CLEAR     65  44  45 N5        30.02R
$$

NEZ041-046>049-061>064-073>077-083>087-230000-
SOUTH CENTRAL NEBRASKA

CITY           SKY/WX    TMP DP  RH WIND       PRES   REMARKS
GRAND ISLAND   CLOUDY    62  59  90 S3        30.01R
AURORA         HVY RAIN  62  61  97 S13       30.00F
HASTINGS       CLOUDY    62  57  83 S5        30.00R
HEBRON         LGT RAIN  63  60  90 CALM      30.00F
HOLDREGE       MOCLDY    65  57  76 CALM      30.00R
KEARNEY *      MOCLDY    64  57  77 SW3       30.01R
YORK           HVY RAIN  61  59  94 NW8       30.02S
$$

NEZ011>018-030>034-042>045-230000-
NORTHEAST NEBRASKA

CITY           SKY/WX    TMP DP  RH WIND       PRES   REMARKS
NORFOLK        RAIN      59  57  93 SW6       30.00R
ALBION         CLOUDY    59  57  94 CALM      30.01R FOG
BLAIR          PTCLDY    73  54  51 SE14      29.98S
COLUMBUS *     CLOUDY    63  57  82 SW12      30.02F
FREMONT        LGT RAIN  65  61  85 W15       30.02R
TEKAMAH        MOCLDY    71  56  58 W17G23    29.99R
WAYNE          RAIN      60  58  92 SW3       29.99F
$$

NEZ050>053-065>068-078-088>093-230000-
SOUTHEAST NEBRASKA

CITY           SKY/WX    TMP DP  RH WIND       PRES   REMARKS
LINCOLN        HVY RAIN  65  61  87 W20G31    30.02R FOG
OMAHA EPPLEY   MOCLDY    72  54  53 SE17      29.99S
BEATRICE       MOCLDY    74  52  45 S15       29.99S
FALLS CITY     LGT RAIN  71  56  58 SE12      30.02S
NEBRASKA CITY  PTCLDY    72  51  47 S13       30.01S
PLATTSMOUTH    PTCLDY    73  52  47 SE8       30.01R
$$

NEZ044-045-051>053-067-230000-
OMAHA AREA

CITY           SKY/WX    TMP DP  RH WIND       PRES   REMARKS
OMAHA EPPLEY   MOCLDY    72  54  53 SE17      29.99S
BLAIR          PTCLDY    73  54  51 SE14      29.98S
FREMONT        LGT RAIN  65  61  85 W15       30.02R
MILLARD        PTCLDY    74  56  52 SE9       29.98S
OFFUTT AFB     PTCLDY    72  57  59 SE12      29.99S
PLATTSMOUTH    PTCLDY    73  52  47 SE8       30.01R
WAHOO          RAIN      65  60  83 W16G22    30.01R
$$



USA.gov is the U.S. government's official web portal to all federal, state and local government web resources and services.